Weather History for College Park, MD

Change the Weather History Date:

Monday, July 22, 2013

  Actual Average Record
Temperature  
Mean Temperature 82 °F -  
Max Temperature 91 °F 90 °F 102 °F (1957)
Min Temperature 74 °F 68 °F 52 °F (1966)
Cooling Degree Days 18    
Growing Degree Days 32 (Base 50)    
Moisture  
Dew Point 75 °F    
Average Humidity 78    
Maximum Humidity 100    
Minimum Humidity 52    
Precipitation  
Precipitation 0.00 in - - ()
Sea Level Pressure  
Sea Level Pressure 29.86 in    
Wind  
Wind Speed 1 mph (SSE)    
Max Wind Speed 7 mph    
Max Gust Speed 16 mph    
Visibility 10 miles    
Events      
Averages and records for this station are not official NWS values.
T = Trace of Precipitation, MM = Missing Value Source: NWS Daily Summary

Daily Weather History Graph

Daily Weather History Graph

Search for Another Location

Airport:

Trip Planner

Search our weather history database for the weather conditions in past years. The results will help you decide how hot, cold, wet, or windy it might be!

Date:

Astronomy

Jul. 22, 2013 Rise Set
Actual Time 6:00 AM EDT 8:27 PM EDT
Civil Twilight 5:29 AM EDT 8:58 PM EDT
Nautical Twilight 4:51 AM EDT 9:36 PM EDT
Astronomical Twilight 4:09 AM EDT 10:17 PM EDT
Moon 8:13 PM EDT (7/22) 5:53 AM EDT (7/22)
Length of Visible Light 15h 28m
Length of Day
14h 27m
Full, 100% of the Moon is Illuminated
Jul 22
Full
Jul 22
Full
Jul 29
Last Quarter
Aug 6
New
Aug 14
First Quarter

Hourly Weather History & Observations

Time (EDT) Temp. Heat Index Dew Point Humidity Pressure Visibility Wind Dir Wind Speed Gust Speed Precip Events Conditions
12:00 AM 77.2 °F - 75.2 °F 94% 29.93 in 10.0 mi Calm Calm - N/A   Scattered Clouds
12:20 AM 77.4 °F - 75.6 °F 94% 29.93 in 10.0 mi Calm Calm - N/A   Scattered Clouds
12:40 AM 77.2 °F - 75.6 °F 95% 29.92 in 10.0 mi Calm Calm - N/A   Clear
1:00 AM 76.3 °F - 75.4 °F 97% 29.92 in 10.0 mi Calm Calm - N/A   Scattered Clouds
1:20 AM 76.1 °F - 75.6 °F 98% 29.92 in 10.0 mi Calm Calm - N/A   Scattered Clouds
1:40 AM 76.8 °F - 75.2 °F 95% 29.92 in 10.0 mi Calm Calm - N/A   Mostly Cloudy
2:00 AM 76.5 °F - 75.6 °F 97% 29.92 in 10.0 mi Calm Calm - N/A   Mostly Cloudy
2:20 AM 76.1 °F - 75.4 °F 98% 29.92 in 10.0 mi Calm Calm - N/A   Scattered Clouds
2:40 AM 75.7 °F - 75.4 °F 99% 29.92 in 10.0 mi Calm Calm - N/A   Scattered Clouds
3:00 AM 76.3 °F - 76.1 °F 99% 29.91 in 10.0 mi Calm Calm - N/A   Clear
3:20 AM 76.6 °F - 75.6 °F 96% 29.91 in 10.0 mi Calm Calm - N/A   Clear
3:40 AM 75.6 °F - 75.2 °F 99% 29.91 in 7.0 mi Calm Calm - N/A   Clear
4:00 AM 75.2 °F - 75.2 °F 100% 29.90 in 7.0 mi Calm Calm - N/A   Clear
4:20 AM 75.0 °F - 75.0 °F 100% 29.90 in 7.0 mi Calm Calm - N/A   Clear
4:40 AM 74.7 °F - 74.7 °F 100% 29.90 in 7.0 mi Calm Calm - N/A   Clear
5:00 AM 74.7 °F - 74.7 °F 100% 29.91 in 7.0 mi Calm Calm - N/A   Clear
5:20 AM 75.2 °F - 75.2 °F 100% 29.90 in 7.0 mi Calm Calm - N/A   Clear
5:40 AM 75.2 °F - 75.2 °F 100% 29.90 in 10.0 mi Calm Calm - N/A   Clear
6:00 AM 75.2 °F - 75.2 °F 100% 29.90 in 10.0 mi Calm Calm - N/A   Clear
6:20 AM 75.2 °F - 75.2 °F 100% 29.90 in 10.0 mi Calm Calm - N/A   Clear
6:40 AM 75.6 °F - 75.4 °F 99% 29.91 in 7.0 mi Calm Calm - N/A   Clear
7:00 AM 76.1 °F - 75.4 °F 98% 29.91 in 10.0 mi Calm Calm - N/A   Clear
7:20 AM 77.0 °F - 75.4 °F 95% 29.91 in 10.0 mi Calm Calm - N/A   Clear
7:40 AM 77.9 °F - 75.2 °F 91% 29.91 in 10.0 mi Calm Calm - N/A   Clear
8:00 AM 78.1 °F - 75.4 °F 91% 29.92 in 10.0 mi Calm Calm - N/A   Clear
8:20 AM 78.8 °F - 75.6 °F 90% 29.93 in 10.0 mi Calm Calm - N/A   Clear
8:40 AM 81.0 °F 87.1 °F 75.7 °F 84% 29.92 in 10.0 mi Calm Calm - N/A   Clear
9:00 AM 81.3 °F 87.4 °F 74.8 °F 81% 29.92 in 10.0 mi Calm Calm - N/A   Clear
9:20 AM 81.0 °F 86.5 °F 74.7 °F 81% 29.92 in 10.0 mi Calm Calm - N/A   Scattered Clouds
9:40 AM 81.5 °F 87.4 °F 74.5 °F 79% 29.92 in 10.0 mi Calm Calm - N/A   Scattered Clouds
10:00 AM 81.5 °F 87.4 °F 74.5 °F 79% 29.92 in 10.0 mi Calm Calm - N/A   Scattered Clouds
10:20 AM 81.5 °F 87.2 °F 74.1 °F 78% 29.92 in 10.0 mi Calm Calm - N/A   Scattered Clouds
10:40 AM 82.4 °F 89.0 °F 74.5 °F 77% 29.92 in 10.0 mi Calm Calm - N/A   Clear
11:00 AM 83.1 °F 90.4 °F 75.0 °F 76% 29.92 in 10.0 mi Calm Calm - N/A   Scattered Clouds
11:20 AM 84.6 °F 92.1 °F 74.1 °F 71% 29.91 in 10.0 mi ESE 3.5 mph - N/A   Scattered Clouds
11:40 AM 85.5 °F 93.0 °F 73.8 °F 68% 29.91 in 10.0 mi Calm Calm - N/A   Clear
12:00 PM 85.3 °F 91.8 °F 72.7 °F 66% 29.90 in 10.0 mi Calm Calm - N/A   Clear
12:20 PM 85.5 °F 92.2 °F 72.9 °F 66% 29.90 in 10.0 mi Calm Calm - N/A   Clear
12:40 PM 86.9 °F 95.4 °F 74.5 °F 66% 29.90 in 10.0 mi ESE 3.5 mph - N/A   Scattered Clouds
1:00 PM 86.9 °F 94.5 °F 73.6 °F 64% 29.89 in 10.0 mi Calm Calm - N/A   Mostly Cloudy
1:20 PM 88.0 °F 95.6 °F 72.9 °F 61% 29.88 in 10.0 mi Calm Calm - N/A   Scattered Clouds
1:40 PM 88.0 °F 95.6 °F 73.2 °F 61% 29.87 in 10.0 mi SE 4.6 mph - N/A   Scattered Clouds
2:00 PM 88.5 °F 96.3 °F 73.0 °F 60% 29.86 in 10.0 mi South 3.5 mph - N/A   Scattered Clouds
2:20 PM 89.1 °F 98.5 °F 74.7 °F 62% 29.86 in 10.0 mi ESE 3.5 mph - N/A   Scattered Clouds
2:40 PM 89.1 °F 97.5 °F 73.6 °F 60% 29.85 in 10.0 mi Calm Calm - N/A   Scattered Clouds
3:00 PM 89.6 °F 97.7 °F 73.2 °F 58% 29.84 in 10.0 mi SE 3.5 mph - N/A   Scattered Clouds
3:20 PM 89.2 °F 97.9 °F 73.9 °F 60% 29.83 in 10.0 mi ESE 4.6 mph - N/A   Mostly Cloudy
3:40 PM 89.6 °F 98.2 °F 73.8 °F 59% 29.82 in 10.0 mi SE 3.5 mph - N/A   Mostly Cloudy
4:00 PM 89.6 °F 99.8 °F 75.0 °F 62% 29.81 in 10.0 mi SSE 3.5 mph - N/A   Mostly Cloudy
4:20 PM 89.4 °F 100.0 °F 75.2 °F 63% 29.81 in 10.0 mi ESE 3.5 mph - N/A   Mostly Cloudy
4:35 PM 89.8 °F 101.5 °F 76.1 °F 64% 29.80 in 10.0 mi SSE 3.5 mph - N/A   Mostly Cloudy
5:00 PM 90.7 °F 96.9 °F 70.9 °F 52% 29.79 in 10.0 mi South 4.6 mph - N/A   Scattered Clouds
5:20 PM 90.9 °F 98.9 °F 72.5 °F 55% 29.79 in 10.0 mi SSW 5.8 mph - N/A   Clear
5:40 PM 91.2 °F 99.7 °F 73.2 °F 55% 29.78 in 10.0 mi South 4.6 mph - N/A   Mostly Cloudy
6:00 PM 89.6 °F 97.7 °F 73.0 °F 58% 29.78 in 10.0 mi SSE 4.6 mph - N/A   Scattered Clouds
6:20 PM 88.7 °F 97.2 °F 73.6 °F 61% 29.77 in 10.0 mi South 4.6 mph - N/A   Scattered Clouds
6:40 PM 89.1 °F 97.5 °F 73.6 °F 60% 29.77 in 10.0 mi SSW 4.6 mph - N/A   Clear
7:00 PM 89.1 °F 98.0 °F 73.9 °F 61% 29.77 in 10.0 mi South 4.6 mph - N/A   Clear
7:20 PM 87.8 °F 96.1 °F 73.9 °F 63% 29.77 in 10.0 mi South 5.8 mph - N/A   Clear
7:40 PM 87.4 °F 96.2 °F 74.3 °F 65% 29.78 in 10.0 mi South 4.6 mph - N/A   Scattered Clouds
8:00 PM 87.1 °F 95.9 °F 74.7 °F 66% 29.78 in 10.0 mi South 4.6 mph - N/A   Clear
8:20 PM 86.9 °F 95.9 °F 74.8 °F 67% 29.78 in 10.0 mi South 3.5 mph - N/A   Clear
8:40 PM 86.4 °F 95.5 °F 75.2 °F 69% 29.77 in 10.0 mi South 4.6 mph - N/A   Scattered Clouds
9:00 PM 86.0 °F 95.5 °F 75.6 °F 71% 29.77 in 10.0 mi Calm Calm - N/A   Clear
9:20 PM 85.5 °F 95.0 °F 76.1 °F 73% 29.77 in 10.0 mi Calm Calm - N/A   Scattered Clouds
9:45 PM 85.3 °F 95.0 °F 76.1 °F 74% 29.77 in 10.0 mi SSE 4.6 mph - N/A   Mostly Cloudy
10:05 PM 85.1 °F 94.1 °F 75.7 °F 73% 29.77 in 10.0 mi SSW 5.8 mph - N/A   Scattered Clouds
10:25 PM 84.4 °F 92.7 °F 75.2 °F 74% 29.78 in 10.0 mi South 4.6 mph - N/A   Mostly Cloudy
10:45 PM 83.7 °F 90.4 °F 73.6 °F 72% 29.77 in 10.0 mi South 4.6 mph - N/A   Scattered Clouds
11:05 PM 82.9 °F 89.1 °F 73.4 °F 73% 29.76 in 10.0 mi South 5.8 mph - N/A   Scattered Clouds
11:25 PM 80.8 °F 84.7 °F 71.6 °F 73% 29.78 in 10.0 mi WNW 6.9 mph 16.1 mph N/A   Overcast
11:45 PM 74.3 °F - 73.4 °F 97% 29.79 in 0.8 mi Calm Calm - N/A   Overcast